Terminal Aerodrome Forecast
Issued by NWS

Home | Current Version | Previous Version | Text Only | Print | Product List | Glossary On
Versions: 1 2 3 4 5 6 7 8 9 10 11 12 13 14 15 16 17 18 19 20 21 22 23 24 25 26 27 28 29 30 31 32 33 34 35 36 37 38 39 40 41 42 43 44 45 46 47 48 49 50
000
FTUS45 KBOU 260340 AAA
TAFBJC
TAF AMD
KBJC 260340Z 2604/2624 29014KT P6SM SCT090 BKN120
     FM260400 04012G20KT P6SM FEW060 BKN090
     FM260600 07008KT P6SM SCT025 BKN060
     FM260700 04010KT P6SM SCT015 BKN025 BKN050
     FM261600 VRB05KT P6SM FEW025 BKN060
     FM261800 28010KT P6SM SCT060 BKN140=

USA.gov is the U.S. government's official web portal to all federal, state and local government web resources and services.